Air temperature 11.7° C
Dewpoint 10.9° C

Last reported at 2014-Apr-17 23:50 UTC.
Time now 2014-Apr-18 00:19 UTC

Location: N 41°17' E 001°31'.
View on Google Maps.

See reports from other nearby stations

Tides Stations Pressure Air Temp Water Temp Dewpoint Dewpoint depression Visibility Wind Speed Wind Dir Waves Ship positions

  
sailing weather and tide predictions

EA3GYL La Torregassa ES weather

date/time (UTC)wind fromknots sea level pressurealtimeterstation pressurevisibilityair tempwater tempwave heightnotes
2014-Apr-17 23:50 11.7
2014-Apr-17 23:40 11.7
2014-Apr-17 23:30 12.2
2014-Apr-17 23:20 12.2
2014-Apr-17 23:10 12.2
2014-Apr-17 23:00 12.2
2014-Apr-17 22:50 12.2
2014-Apr-17 22:40 12.2
2014-Apr-17 22:30 12.2
2014-Apr-17 22:20 12.2
2014-Apr-17 22:10 12.8
2014-Apr-17 22:00 12.8
2014-Apr-17 21:50 12.2
2014-Apr-17 21:40 12.2
2014-Apr-17 21:30 12.8
2014-Apr-17 21:20 12.8
2014-Apr-17 21:10 12.8
2014-Apr-17 21:00 12.8
2014-Apr-17 20:50 13.3
2014-Apr-17 20:40 13.3
2014-Apr-17 20:30 13.3
2014-Apr-17 20:20 13.3
2014-Apr-17 20:10 13.3
2014-Apr-17 20:00 13.3
2014-Apr-17 19:50 13.9
2014-Apr-17 19:40 13.9
2014-Apr-17 19:30 14.4
2014-Apr-17 19:20 14.4
2014-Apr-17 19:10 14.4
2014-Apr-17 19:00 15.0
2014-Apr-17 18:50 15.0
2014-Apr-17 18:40 15.6
2014-Apr-17 18:30 228 0 gusting 1 15.6
2014-Apr-17 18:20 191 0 gusting 3 16.1
2014-Apr-17 18:10 162 1 gusting 2 16.7
2014-Apr-17 18:00 164 1 gusting 4 16.7
2014-Apr-17 17:50 163 2 gusting 4 17.2
2014-Apr-17 17:40 146 2 gusting 5 17.2
2014-Apr-17 17:30 148 2 gusting 5 17.2
2014-Apr-17 17:20 149 3 gusting 4 17.8
2014-Apr-17 17:10 143 3 gusting 6 17.8
2014-Apr-17 17:00 138 2 gusting 6 18.3
2014-Apr-17 16:50 140 3 gusting 6 18.3
2014-Apr-17 16:40 165 2 gusting 6 18.3
2014-Apr-17 16:30 151 3 gusting 6 18.3
2014-Apr-17 16:20 137 3 gusting 6 18.3
2014-Apr-17 16:10 135 3 gusting 6 18.3
2014-Apr-17 16:00 154 3 gusting 5 18.3
2014-Apr-17 15:20 171 3 gusting 6 18.9
2014-Apr-17 15:10 146 3 gusting 8 18.3
2014-Apr-17 15:00 137 3 gusting 7 18.9
2014-Apr-17 14:50 148 3 gusting 9 18.9
2014-Apr-17 14:40 143 3 gusting 7 18.9
2014-Apr-17 14:30 134 3 gusting 6 18.9
2014-Apr-17 14:20 148 2 gusting 6 18.9
2014-Apr-17 14:10 150 3 gusting 6 18.9
2014-Apr-17 14:00 156 4 gusting 7 18.9
2014-Apr-17 13:50 151 3 gusting 7 18.9
2014-Apr-17 13:40 147 5 gusting 9 18.9
2014-Apr-17 13:30 151 4 gusting 8 18.9
2014-Apr-17 13:20 181 4 gusting 9 18.9
2014-Apr-17 13:10 161 4 gusting 10 18.9
2014-Apr-17 13:00 153 4 gusting 8 18.9
2014-Apr-17 12:50 149 4 gusting 8 18.9
2014-Apr-17 12:40 162 4 gusting 11 18.9
2014-Apr-17 12:30 160 3 gusting 8 19.4
2014-Apr-17 12:20 160 3 gusting 6 18.9
2014-Apr-17 12:10 167 4 gusting 8 19.4
2014-Apr-17 12:00 168 4 gusting 9 18.9
2014-Apr-17 11:50 149 4 gusting 10 18.9
2014-Apr-17 11:40 166 4 gusting 8 18.9
2014-Apr-17 11:30 166 3 gusting 9 18.9
2014-Apr-17 11:20 172 4 gusting 10 18.3
2014-Apr-17 11:10 172 4 gusting 6 18.3
2014-Apr-17 11:00 181 3 gusting 9 18.3
2014-Apr-17 10:50 150 2 gusting 7 17.8
2014-Apr-17 10:40 183 2 gusting 7 17.8
2014-Apr-17 10:30 178 2 gusting 6 17.8
2014-Apr-17 10:20 164 2 gusting 6 17.8
2014-Apr-17 10:10 150 2 gusting 6 17.8
2014-Apr-17 10:00 138 2 gusting 7 17.8
2014-Apr-17 09:50 172 1 gusting 6 17.8
2014-Apr-17 09:40 147 1 gusting 6 17.8
2014-Apr-17 09:30 198 1 gusting 4 17.2
2014-Apr-17 09:20 121 1 gusting 4 17.2
2014-Apr-17 09:10 134 1 gusting 5 16.7
2014-Apr-17 09:00 111 1 gusting 6 16.1
2014-Apr-17 08:50 109 1 gusting 3 16.1
2014-Apr-17 08:40 112 1 gusting 6 16.1
2014-Apr-17 08:30 129 1 gusting 5 16.1
2014-Apr-17 08:20 094 1 gusting 4 15.6
2014-Apr-17 08:10 110 1 gusting 4 15.6
2014-Apr-17 08:00 091 1 gusting 5 15.6
2014-Apr-17 07:50 064 2 gusting 6 15.6
2014-Apr-17 07:40 075 0 gusting 5 15.0
2014-Apr-17 07:30 15.0
2014-Apr-17 07:20 15.0
2014-Apr-17 07:10 15.0
2014-Apr-17 07:00 13.9
2014-Apr-17 06:50 13.9
2014-Apr-17 06:40 13.9
2014-Apr-17 06:30 13.3
2014-Apr-17 06:20 13.3
2014-Apr-17 06:10 12.2
2014-Apr-17 06:00 11.7
2014-Apr-17 05:50 11.1
2014-Apr-17 05:40 10.6
2014-Apr-17 05:30 10.0
2014-Apr-17 05:20 10.0
2014-Apr-17 05:10 10.0
2014-Apr-17 05:00 10.6
2014-Apr-17 04:50 10.6
2014-Apr-17 04:40 10.6
2014-Apr-17 04:30 10.6
2014-Apr-17 04:20 10.6
2014-Apr-17 04:10 10.6
2014-Apr-17 04:00 10.6
2014-Apr-17 03:50 10.6
2014-Apr-17 03:40 10.0
2014-Apr-17 03:30 10.0
2014-Apr-17 03:20 10.0
2014-Apr-17 03:10 10.6
2014-Apr-17 03:00 10.6
2014-Apr-17 02:50 123 11.1
2014-Apr-17 02:40 038 12.2
2014-Apr-17 02:30 11.7
2014-Apr-17 02:20 11.7
2014-Apr-17 02:10 313 11.7
2014-Apr-17 02:00 11.7
2014-Apr-17 01:50 11.7
2014-Apr-17 01:40 11.7
2014-Apr-17 01:30 11.1
2014-Apr-17 01:20 11.7
2014-Apr-17 01:10 11.7
2014-Apr-17 01:00 11.7
2014-Apr-17 00:50 11.7
2014-Apr-17 00:40 11.7
2014-Apr-17 00:30 11.7
2014-Apr-17 00:20 11.7
2014-Apr-17 00:10 11.7
2014-Apr-17 00:00 12.2
2014-Apr-16 23:50 12.2
2014-Apr-16 23:40 12.2
2014-Apr-16 23:30 12.2
2014-Apr-16 23:20 12.2
2014-Apr-16 23:10 12.2
2014-Apr-16 23:00 12.2
2014-Apr-16 22:50 045 12.2
2014-Apr-16 22:40 045 0 gusting 1 12.2
2014-Apr-16 22:30 048 12.2
2014-Apr-16 22:20 11.7
2014-Apr-16 22:10 12.2
2014-Apr-16 22:00 351 12.2
2014-Apr-16 21:50 336 0 gusting 1 12.2
2014-Apr-16 21:40 12.2
2014-Apr-16 21:30 12.2
2014-Apr-16 21:20 12.8
2014-Apr-16 21:10 12.8
2014-Apr-16 21:00 12.8
2014-Apr-16 20:50 12.8
2014-Apr-16 20:40 12.8
2014-Apr-16 20:30 12.8
2014-Apr-16 20:20 12.8
2014-Apr-16 20:10 12.8
2014-Apr-16 20:00 13.3
2014-Apr-16 19:50 13.3
2014-Apr-16 19:40 13.3
2014-Apr-16 19:30 13.3
2014-Apr-16 19:20 13.3
2014-Apr-16 19:10 13.3
2014-Apr-16 19:00 124 13.9
2014-Apr-16 18:50 138 0 gusting 1 13.9
2014-Apr-16 18:40 144 1 gusting 3 14.4
2014-Apr-16 18:30 138 0 gusting 3 14.4
2014-Apr-16 18:20 147 0 gusting 2 15.0
2014-Apr-16 18:10 159 0 gusting 2 15.6
2014-Apr-16 18:00 171 0 gusting 3 16.1
2014-Apr-16 17:50 163 2 gusting 5 16.1
2014-Apr-16 17:40 157 2 gusting 5 16.7
2014-Apr-16 17:30 157 1 gusting 4 17.2
2014-Apr-16 17:20 174 2 gusting 5 17.2
2014-Apr-16 17:10 168 2 gusting 5 17.2
2014-Apr-16 17:00 157 2 gusting 6 17.2
2014-Apr-16 16:50 140 3 gusting 6 17.2
2014-Apr-16 16:40 172 3 gusting 7 17.8
2014-Apr-16 16:30 153 3 gusting 8 17.8
2014-Apr-16 16:20 156 4 gusting 7 18.3
2014-Apr-16 16:10 140 3 gusting 9 17.8
2014-Apr-16 16:00 150 3 gusting 7 18.3
2014-Apr-16 15:50 164 4 gusting 7 18.3
2014-Apr-16 15:40 160 4 gusting 9 18.3
2014-Apr-16 15:30 165 4 gusting 8 18.3
2014-Apr-16 15:20 162 4 gusting 9 18.9
2014-Apr-16 15:10 160 5 gusting 9 18.9
2014-Apr-16 15:00 147 5 gusting 9 18.9
2014-Apr-16 14:50 152 6 gusting 10 18.9
2014-Apr-16 14:40 149 6 gusting 11 18.9
2014-Apr-16 14:30 152 6 gusting 11 18.9
2014-Apr-16 14:20 161 6 gusting 10 19.4
2014-Apr-16 14:10 156 6 gusting 10 19.4
2014-Apr-16 14:00 147 6 gusting 12 19.4
2014-Apr-16 13:50 147 6 gusting 11 19.4
2014-Apr-16 13:40 149 6 gusting 11 19.4
2014-Apr-16 13:30 152 6 gusting 11 19.4
2014-Apr-16 13:20 156 6 gusting 10 19.4
2014-Apr-16 13:10 150 6 gusting 12 19.4
2014-Apr-16 13:00 149 5 gusting 11 19.4
2014-Apr-16 12:50 163 6 gusting 11 19.4
2014-Apr-16 12:40 150 6 gusting 11 19.4
2014-Apr-16 12:30 154 6 gusting 11 20.0
2014-Apr-16 12:20 154 6 gusting 12 20.0
2014-Apr-16 12:10 153 6 gusting 13 19.4
2014-Apr-16 12:00 154 6 gusting 12 19.4
2014-Apr-16 11:50 152 6 gusting 13 19.4
2014-Apr-16 11:40 156 5 gusting 11 19.4
2014-Apr-16 11:30 160 6 gusting 10 19.4
2014-Apr-16 11:20 150 6 gusting 11 18.9
2014-Apr-16 11:10 159 6 gusting 10 18.9
2014-Apr-16 11:00 160 7 gusting 11 18.9
2014-Apr-16 10:50 148 6 gusting 12 18.9
2014-Apr-16 10:40 150 6 gusting 12 19.4
2014-Apr-16 10:30 149 6 gusting 13 19.4
2014-Apr-16 10:20 146 6 gusting 12 19.4
2014-Apr-16 10:10 148 6 gusting 13 18.9
2014-Apr-16 10:00 185 4 gusting 13 19.4
2014-Apr-16 09:50 195 2 gusting 7 20.0
2014-Apr-16 09:40 223 3 gusting 7 19.4
2014-Apr-16 09:30 217 4 gusting 9 18.9
2014-Apr-16 09:20 234 4 gusting 9 18.9
2014-Apr-16 09:10 238 3 gusting 8 18.3
2014-Apr-16 09:00 237 3 gusting 6 18.3
2014-Apr-16 08:50 231 2 gusting 6 18.3
2014-Apr-16 08:40 227 2 gusting 5 18.3
2014-Apr-16 08:30 236 2 gusting 6 17.8
2014-Apr-16 08:20 226 2 gusting 6 17.8
2014-Apr-16 08:10 236 2 gusting 6 17.8
2014-Apr-16 08:00 245 2 gusting 6 17.2
2014-Apr-16 07:50 227 2 gusting 5 17.2
2014-Apr-16 07:40 236 2 gusting 5 16.7
2014-Apr-16 07:30 237 1 gusting 5 16.7
2014-Apr-16 07:20 255 1 gusting 4 16.7
2014-Apr-16 07:10 258 0 gusting 4 16.7
2014-Apr-16 07:00 256 16.1
2014-Apr-16 06:50 282 0 gusting 1 15.6
2014-Apr-16 06:40 293 0 gusting 1 15.0
2014-Apr-16 06:30 290 0 gusting 1 15.0
2014-Apr-16 06:20 294 0 gusting 2 14.4
2014-Apr-16 06:10 297 0 gusting 1 13.9
2014-Apr-16 06:00 13.3
2014-Apr-16 05:50 12.8
2014-Apr-16 05:40 12.8
2014-Apr-16 05:30 12.2
2014-Apr-16 05:20 12.2
2014-Apr-16 05:10 11.7
2014-Apr-16 05:00 11.7
2014-Apr-16 04:50 12.2
2014-Apr-16 04:40 12.8
2014-Apr-16 04:30 12.8
2014-Apr-16 04:10 13.3
2014-Apr-16 04:00 317 0 gusting 0 13.3
2014-Apr-16 03:50 312 0 gusting 1 13.3
2014-Apr-16 03:40 313 0 gusting 1 13.3
2014-Apr-16 03:30 313 13.3
2014-Apr-16 03:20 312 0 gusting 1 13.3
2014-Apr-16 03:10 13.3
2014-Apr-16 03:00 13.3
2014-Apr-16 02:50 13.3
2014-Apr-16 02:40 12.8
2014-Apr-16 02:30 13.3
2014-Apr-16 02:20 13.3
2014-Apr-16 02:10 13.3
2014-Apr-16 02:00 12.8
2014-Apr-16 01:50 12.8
2014-Apr-16 01:40 12.8
2014-Apr-16 01:30 12.8
2014-Apr-16 01:20 12.8
2014-Apr-16 01:10 12.8
2014-Apr-16 01:00 13.3
2014-Apr-16 00:50 13.3
2014-Apr-16 00:40 13.3
2014-Apr-16 00:30 13.3
2014-Apr-16 00:20 13.3
2014-Apr-16 00:10 13.3
2014-Apr-16 00:00 13.9